| time (UTC) | temp F | wind direction | speed MPH | gust MPH | rain 1hr in | rain 24hr in | rain mn in | humidity % | barometer mb |
| 20260906203527 | 85 | 184 | 9.0 | 19.0 | 0.00 | 1.44 | 0.00 | 63 | 1016.6 |
| 20260906203057 | 85 | 172 | 8.0 | 15.0 | 0.00 | 1.44 | 0.00 | 63 | 1016.7 |
| 20260906202524 | 85 | 196 | 8.0 | 16.0 | 0.00 | 1.44 | 0.00 | 64 | 1016.7 |
| 20260906202030 | 84 | 141 | 9.0 | 16.0 | 0.00 | 1.44 | 0.00 | 62 | 1016.8 |
| 20260906201554 | 84 | 180 | 8.0 | 14.0 | 0.00 | 1.44 | 0.00 | 63 | 1016.7 |
| 20260906201030 | 84 | 147 | 6.0 | 14.0 | 0.00 | 1.44 | 0.00 | 62 | 1016.8 |
| 20260906200526 | 84 | 178 | 8.0 | 16.0 | 0.00 | 1.44 | 0.00 | 64 | 1017.0 |
| 20260906200046 | 84 | 175 | 10.0 | 16.0 | 0.00 | 1.44 | 0.00 | 63 | 1016.9 |
| 20260906195524 | 84 | 151 | 6.0 | 15.0 | 0.00 | 1.44 | 0.00 | 64 | 1016.9 |
| 20260906195024 | 84 | 194 | 8.0 | 15.0 | 0.00 | 1.44 | 0.00 | 63 | 1016.9 |
| 20260906194546 | 84 | 141 | 7.0 | 16.0 | 0.00 | 1.44 | 0.00 | 64 | 1016.9 |
| 20260906194023 | 83 | 186 | 9.0 | 17.0 | 0.00 | 1.44 | 0.00 | 65 | 1017.0 |
| 20260906193525 | 83 | 136 | 9.0 | 17.0 | 0.00 | 1.44 | 0.00 | 65 | 1016.9 |
| 20260906193055 | 83 | 149 | 9.0 | 16.0 | 0.00 | 1.44 | 0.00 | 65 | 1017.0 |
| 20260906192527 | 83 | 175 | 8.0 | 16.0 | 0.00 | 1.44 | 0.00 | 66 | 1017.0 |
| 20260906192025 | 82 | 165 | 8.0 | 16.0 | 0.00 | 1.44 | 0.00 | 66 | 1017.0 |
| 20260906191553 | 82 | 195 | 9.0 | 18.0 | 0.00 | 1.44 | 0.00 | 66 | 1017.1 |
| 20260906191027 | 82 | 163 | 8.0 | 18.0 | 0.00 | 1.44 | 0.00 | 66 | 1017.2 |
| 20260906190526 | 81 | 172 | 11.0 | 19.0 | 0.00 | 1.44 | 0.00 | 67 | 1017.1 |
| 20260906190047 | 81 | 182 | 10.0 | 19.0 | 0.00 | 1.44 | 0.00 | 68 | 1017.1 |
| 20260906185524 | 81 | 153 | 10.0 | 16.0 | 0.00 | 1.44 | 0.00 | 67 | 1017.2 |
| 20260906185026 | 81 | 200 | 11.0 | 18.0 | 0.00 | 1.44 | 0.00 | 66 | 1017.4 |
| 20260906184555 | 81 | 194 | 10.0 | 18.0 | 0.00 | 1.44 | 0.00 | 69 | 1017.6 |
| 20260906184027 | 81 | 179 | 10.0 | 23.0 | 0.00 | 1.44 | 0.00 | 67 | 1017.6 |
| 20260906183527 | 80 | 167 | 11.0 | 23.0 | 0.00 | 1.44 | 0.00 | 69 | 1017.8 |
| 20260906183051 | 80 | 188 | 12.0 | 23.0 | 0.00 | 1.44 | 0.00 | 69 | 1017.9 |
| 20260906182529 | 80 | 170 | 12.0 | 23.0 | 0.00 | 1.44 | 0.00 | 69 | 1017.9 |
| 20260906182029 | 79 | 187 | 11.0 | 18.0 | 0.00 | 1.44 | 0.00 | 69 | 1018.0 |
| 20260906181553 | 79 | 221 | 10.0 | 21.0 | 0.00 | 1.44 | 0.00 | 70 | 1018.0 |
| 20260906181029 | 79 | 203 | 13.0 | 21.0 | 0.00 | 1.44 | 0.00 | 70 | 1018.1 |
| 20260906180528 | 79 | 209 | 11.0 | 20.0 | 0.00 | 1.44 | 0.00 | 70 | 1018.1 |
| 20260906180103 | 79 | 193 | 12.0 | 20.0 | 0.00 | 1.44 | 0.00 | 70 | 1018.1 |
| 20260906175525 | 79 | 197 | 10.0 | 18.0 | 0.00 | 1.44 | 0.00 | 71 | 1018.2 |
| 20260906175028 | 78 | 190 | 12.0 | 21.0 | 0.00 | 1.44 | 0.00 | 71 | 1018.2 |
| 20260906174544 | 78 | 166 | 12.0 | 21.0 | 0.00 | 1.44 | 0.00 | 70 | 1018.4 |
| 20260906174028 | 78 | 177 | 13.0 | 20.0 | 0.00 | 1.44 | 0.00 | 70 | 1018.4 |
| 20260906173528 | 77 | 176 | 11.0 | 17.0 | 0.00 | 1.44 | 0.00 | 71 | 1018.4 |
| 20260906173047 | 77 | 180 | 9.0 | 16.0 | 0.00 | 1.44 | 0.00 | 71 | 1018.4 |
| 20260906172527 | 77 | 190 | 11.0 | 18.0 | 0.00 | 1.44 | 0.00 | 71 | 1018.4 |
| 20260906172027 | 77 | 182 | 11.0 | 18.0 | 0.00 | 1.44 | 0.00 | 70 | 1018.4 |
| 20260906171556 | 77 | 185 | 11.0 | 18.0 | 0.00 | 1.44 | 0.00 | 70 | 1018.5 |
| 20260906171025 | 77 | 173 | 9.0 | 19.0 | 0.00 | 1.44 | 0.00 | 71 | 1018.5 |
| 20260906170526 | 76 | 149 | 11.0 | 19.0 | 0.00 | 1.44 | 0.00 | 71 | 1018.6 |
| 20260906170053 | 76 | 186 | 11.0 | 17.0 | 0.00 | 1.44 | 0.00 | 71 | 1018.7 |
| 20260906165527 | 76 | 174 | 11.0 | 18.0 | 0.00 | 1.44 | 0.00 | 71 | 1018.8 |
| 20260906165025 | 76 | 178 | 9.0 | 18.0 | 0.00 | 1.44 | 0.00 | 72 | 1018.8 |
| 20260906164554 | 76 | 190 | 9.0 | 15.0 | 0.00 | 1.44 | 0.00 | 72 | 1018.8 |
| 20260906164030 | 76 | 163 | 8.0 | 15.0 | 0.00 | 1.44 | 0.00 | 73 | 1018.7 |
| 20260906163526 | 76 | 198 | 10.0 | 15.0 | 0.00 | 1.44 | 0.00 | 72 | 1018.8 |
| 20260906163056 | 76 | 191 | 9.0 | 15.0 | 0.00 | 1.44 | 0.00 | 72 | 1018.8 |
| 20260906162526 | 76 | 192 | 9.0 | 15.0 | 0.00 | 1.44 | 0.00 | 71 | 1018.8 |
| 20260906162024 | 76 | 190 | 6.0 | 13.0 | 0.00 | 1.44 | 0.00 | 73 | 1019.0 |
| 20260906161546 | 75 | 196 | 8.0 | 13.0 | 0.00 | 1.44 | 0.00 | 72 | 1018.9 |
| 20260906161025 | 75 | 169 | 8.0 | 12.0 | 0.00 | 1.44 | 0.00 | 74 | 1018.9 |
| 20260906160525 | 75 | 167 | 6.0 | 13.0 | 0.00 | 1.44 | 0.00 | 74 | 1018.9 |
| 20260906160052 | 74 | 163 | 7.0 | 13.0 | 0.00 | 1.44 | 0.00 | 74 | 1018.8 |
| 20260906155527 | 74 | 181 | 8.0 | 12.0 | 0.00 | 1.44 | 0.00 | 74 | 1018.9 |
| 20260906155027 | 74 | 187 | 8.0 | 15.0 | 0.00 | 1.44 | 0.00 | 74 | 1018.8 |
| 20260906154552 | 73 | 186 | 8.0 | 15.0 | 0.00 | 1.44 | 0.00 | 74 | 1018.7 |
| 20260906154028 | 73 | 150 | 5.0 | 14.0 | 0.00 | 1.44 | 0.00 | 76 | 1018.7 |
| 20260906153526 | 73 | 169 | 8.0 | 14.0 | 0.00 | 1.44 | 0.00 | 75 | 1018.8 |
| 20260906153046 | 73 | 169 | 8.0 | 14.0 | 0.00 | 1.44 | 0.00 | 75 | 1018.7 |
| 20260906152529 | 72 | 184 | 8.0 | 14.0 | 0.00 | 1.44 | 0.00 | 76 | 1018.8 |
| 20260906152027 | 72 | 164 | 7.0 | 13.0 | 0.00 | 1.44 | 0.00 | 76 | 1018.8 |
| 20260906151546 | 72 | 173 | 7.0 | 12.0 | 0.00 | 1.44 | 0.00 | 76 | 1019.0 |
| 20260906151025 | 71 | 185 | 7.0 | 13.0 | 0.00 | 1.44 | 0.00 | 76 | 1019.1 |
| 20260906150523 | 71 | 178 | 9.0 | 14.0 | 0.00 | 1.44 | 0.00 | 76 | 1019.2 |
| 20260906145525 | 71 | 164 | 8.0 | 14.0 | 0.00 | 1.44 | 0.00 | 76 | 1019.2 |
| 20260906145024 | 71 | 165 | 8.0 | 14.0 | 0.00 | 1.44 | 0.00 | 76 | 1019.2 |
| 20260906144548 | 70 | 165 | 8.0 | 14.0 | 0.00 | 1.44 | 0.00 | 77 | 1019.3 |
| 20260906144024 | 70 | 201 | 8.0 | 13.0 | 0.00 | 1.44 | 0.00 | 77 | 1019.3 |
| 20260906143525 | 70 | 186 | 8.0 | 13.0 | 0.00 | 1.44 | 0.00 | 78 | 1019.5 |
| 20260906143051 | 70 | 190 | 6.0 | 11.0 | 0.00 | 1.44 | 0.00 | 78 | 1019.4 |
| 20260906142524 | 69 | 183 | 7.0 | 11.0 | 0.00 | 1.44 | 0.00 | 78 | 1019.2 |
| 20260906142029 | 69 | 178 | 7.0 | 10.0 | 0.00 | 1.44 | 0.00 | 78 | 1019.2 |
| 20260906141556 | 68 | 186 | 5.0 | 9.0 | 0.00 | 1.44 | 0.00 | 80 | 1019.1 |
| 20260906141027 | 68 | 208 | 5.0 | 9.0 | 0.00 | 1.44 | 0.00 | 81 | 1019.1 |
| 20260906140526 | 67 | 168 | 4.0 | 7.0 | 0.00 | 1.44 | 0.00 | 83 | 1019.1 |
| 20260906140054 | 66 | 189 | 4.0 | 7.0 | 0.00 | 1.44 | 0.00 | 83 | 1019.1 |
| 20260906135526 | 66 | 191 | 4.0 | 7.0 | 0.00 | 1.44 | 0.00 | 84 | 1019.1 |
| 20260906135025 | 65 | 224 | 4.0 | 7.0 | 0.00 | 1.44 | 0.00 | 84 | 1019.1 |
| 20260906134546 | 65 | 210 | 4.0 | 7.0 | 0.00 | 1.44 | 0.00 | 84 | 1019.3 |
| 20260906134026 | 64 | 232 | 3.0 | 5.0 | 0.00 | 1.44 | 0.00 | 85 | 1019.1 |
| 20260906133528 | 64 | 221 | 3.0 | 5.0 | 0.00 | 1.44 | 0.00 | 85 | 1019.2 |
| 20260906133109 | 63 | 234 | 1.0 | 3.0 | 0.00 | 1.44 | 0.00 | 85 | 1019.1 |
| 20260906132526 | 63 | 234 | 1.0 | 4.0 | 0.00 | 1.44 | 0.00 | 86 | 1019.1 |
| 20260906132026 | 63 | 234 | 0.0 | 4.0 | 0.00 | 1.44 | 0.00 | 86 | 1019.0 |
| 20260906131553 | 62 | 234 | 2.0 | 5.0 | 0.00 | 1.44 | 0.00 | 86 | 1019.0 |
| 20260906131027 | 62 | 234 | 3.0 | 5.0 | 0.00 | 1.44 | 0.00 | 86 | 1019.0 |
| 20260906130526 | 61 | 207 | 0.0 | 2.0 | 0.00 | 1.44 | 0.00 | 86 | 1018.9 |
| 20260906130104 | 61 | 0 | 0.0 | 2.0 | 0.00 | 1.44 | 0.00 | 86 | 1019.0 |
| 20260906125526 | 61 | 0 | 0.0 | 5.0 | 0.00 | 1.44 | 0.00 | 86 | 1018.8 |
| 20260906125027 | 60 | 207 | 1.0 | 5.0 | 0.00 | 1.44 | 0.00 | 86 | 1018.8 |
| 20260906124546 | 60 | 207 | 3.0 | 5.0 | 0.00 | 1.44 | 0.00 | 85 | 1018.8 |
| 20260906124030 | 60 | 164 | 3.0 | 5.0 | 0.00 | 1.44 | 0.00 | 85 | 1018.8 |
| 20260906123525 | 60 | 164 | 1.0 | 4.0 | 0.00 | 1.44 | 0.00 | 84 | 1018.7 |
| 20260906123045 | 60 | 164 | 1.0 | 4.0 | 0.00 | 1.44 | 0.00 | 84 | 1018.5 |
| 20260906122523 | 60 | 0 | 0.0 | 4.0 | 0.00 | 1.44 | 0.00 | 84 | 1018.4 |
| 20260906122023 | 60 | 0 | 0.0 | 4.0 | 0.00 | 1.44 | 0.00 | 83 | 1018.4 |
| 20260906121549 | 61 | 0 | 0.0 | 4.0 | 0.00 | 1.44 | 0.00 | 83 | 1018.1 |
| 20260906121023 | 61 | 0 | 0.0 | 4.0 | 0.00 | 1.44 | 0.00 | 83 | 1018.1 |
| 20260906120526 | 61 | 164 | 3.0 | 5.0 | 0.00 | 1.44 | 0.00 | 83 | 1017.9 |
| 20260906120046 | 61 | 164 | 2.0 | 6.0 | 0.00 | 1.44 | 0.00 | 83 | 1017.9 |
| 20260906115525 | 61 | 164 | 4.0 | 6.0 | 0.00 | 1.44 | 0.00 | 83 | 1018.0 |
| 20260906115025 | 61 | 164 | 3.0 | 6.0 | 0.00 | 1.44 | 0.00 | 83 | 1017.9 |
| 20260906114550 | 62 | 164 | 4.0 | 6.0 | 0.00 | 1.44 | 0.00 | 82 | 1017.9 |
| 20260906114028 | 62 | 164 | 4.0 | 6.0 | 0.00 | 1.44 | 0.00 | 82 | 1017.9 |
| 20260906113525 | 62 | 164 | 3.0 | 7.0 | 0.00 | 1.44 | 0.00 | 82 | 1018.0 |
| 20260906113056 | 62 | 144 | 3.0 | 8.0 | 0.00 | 1.44 | 0.00 | 81 | 1018.1 |
| 20260906112523 | 62 | 118 | 4.0 | 9.0 | 0.00 | 1.44 | 0.00 | 81 | 1018.0 |
| 20260906112023 | 62 | 115 | 5.0 | 9.0 | 0.00 | 1.44 | 0.00 | 81 | 1018.0 |
| 20260906111608 | 62 | 105 | 6.0 | 9.0 | 0.00 | 1.44 | 0.00 | 82 | 1017.8 |
| 20260906111026 | 62 | 119 | 3.0 | 6.0 | 0.00 | 1.44 | 0.00 | 81 | 1018.0 |
| 20260906110524 | 62 | 152 | 2.0 | 5.0 | 0.00 | 1.44 | 0.00 | 80 | 1018.1 |
| 20260906110044 | 63 | 152 | 3.0 | 5.0 | 0.00 | 1.44 | 0.00 | 80 | 1018.0 |
| 20260906105525 | 63 | 152 | 2.0 | 9.0 | 0.00 | 1.44 | 0.00 | 80 | 1017.9 |
| 20260906105030 | 63 | 152 | 4.0 | 9.0 | 0.00 | 1.44 | 0.00 | 80 | 1018.1 |
| 20260906104553 | 63 | 116 | 4.0 | 11.0 | 0.00 | 1.44 | 0.00 | 79 | 1017.8 |
| 20260906104023 | 64 | 136 | 6.0 | 11.0 | 0.00 | 1.44 | 0.00 | 79 | 1017.9 |
| 20260906103525 | 64 | 131 | 7.0 | 10.0 | 0.00 | 1.44 | 0.00 | 79 | 1017.9 |
| 20260906103047 | 64 | 119 | 6.0 | 10.0 | 0.00 | 1.44 | 0.00 | 79 | 1017.8 |
| 20260906102528 | 64 | 116 | 6.0 | 11.0 | 0.00 | 1.44 | 0.00 | 78 | 1017.5 |
| 20260906102026 | 64 | 130 | 6.0 | 11.0 | 0.00 | 1.44 | 0.00 | 78 | 1017.5 |
| 20260906101556 | 64 | 104 | 8.0 | 12.0 | 0.00 | 1.44 | 0.00 | 77 | 1017.3 |
| 20260906101024 | 65 | 107 | 8.0 | 14.0 | 0.00 | 1.44 | 0.00 | 77 | 1017.1 |
| 20260906100526 | 65 | 105 | 9.0 | 14.0 | 0.00 | 1.44 | 0.00 | 77 | 1017.1 |
| 20260906100051 | 65 | 120 | 8.0 | 12.0 | 0.00 | 1.44 | 0.00 | 77 | 1017.1 |
| 20260906095531 | 65 | 119 | 8.0 | 12.0 | 0.00 | 1.44 | 0.00 | 76 | 1017.1 |
| 20260906095025 | 65 | 95 | 7.0 | 14.0 | 0.00 | 1.44 | 0.00 | 76 | 1017.1 |
| 20260906094552 | 66 | 93 | 9.0 | 14.0 | 0.00 | 1.44 | 0.00 | 75 | 1016.8 |
| 20260906094026 | 66 | 96 | 10.0 | 15.0 | 0.00 | 1.44 | 0.00 | 75 | 1017.0 |
| 20260906093526 | 66 | 95 | 10.0 | 17.0 | 0.00 | 1.44 | 0.00 | 75 | 1016.9 |
| 20260906093046 | 66 | 92 | 9.0 | 17.0 | 0.00 | 1.44 | 0.00 | 74 | 1017.1 |
| 20260906092527 | 66 | 105 | 11.0 | 17.0 | 0.00 | 1.44 | 0.00 | 74 | 1017.2 |
| 20260906092024 | 67 | 105 | 10.0 | 15.0 | 0.00 | 1.44 | 0.00 | 74 | 1017.2 |
| 20260906091548 | 67 | 96 | 11.0 | 15.0 | 0.00 | 1.44 | 0.00 | 74 | 1017.2 |
| 20260906091025 | 67 | 90 | 11.0 | 18.0 | 0.00 | 1.44 | 0.00 | 74 | 1017.3 |
| 20260906090529 | 67 | 109 | 11.0 | 18.0 | 0.00 | 1.44 | 0.00 | 74 | 1017.3 |
| 20260906090052 | 67 | 113 | 11.0 | 18.0 | 0.00 | 1.44 | 0.00 | 74 | 1017.1 |
| 20260906085523 | 67 | 105 | 10.0 | 15.0 | 0.00 | 1.44 | 0.00 | 74 | 1017.2 |
| 20260906085023 | 66 | 97 | 9.0 | 16.0 | 0.00 | 1.44 | 0.00 | 74 | 1017.1 |
| 20260906084552 | 66 | 90 | 10.0 | 16.0 | 0.00 | 1.44 | 0.00 | 74 | 1017.0 |
| 20260906084027 | 66 | 101 | 11.0 | 15.0 | 0.00 | 1.44 | 0.00 | 74 | 1017.1 |
| 20260906083526 | 66 | 95 | 11.0 | 15.0 | 0.00 | 1.44 | 0.00 | 74 | 1017.0 |
| 20260906083051 | 66 | 95 | 10.0 | 15.0 | 0.00 | 1.44 | 0.00 | 74 | 1017.0 |
| 20260906082527 | 66 | 94 | 10.0 | 14.0 | 0.00 | 1.44 | 0.00 | 74 | 1017.0 |
| 20260906082026 | 66 | 90 | 10.0 | 16.0 | 0.00 | 1.44 | 0.00 | 74 | 1017.0 |
| 20260906081546 | 67 | 106 | 11.0 | 18.0 | 0.00 | 1.44 | 0.00 | 73 | 1017.0 |
| 20260906081026 | 67 | 111 | 12.0 | 18.0 | 0.00 | 1.44 | 0.00 | 73 | 1017.1 |
| 20260906080525 | 67 | 98 | 10.0 | 16.0 | 0.00 | 1.44 | 0.00 | 73 | 1017.2 |
| 20260906075524 | 67 | 113 | 11.0 | 17.0 | 0.00 | 1.44 | 0.00 | 74 | 1017.5 |
| 20260906075023 | 66 | 113 | 11.0 | 16.0 | 0.00 | 1.44 | 0.00 | 75 | 1017.7 |
| 20260906074554 | 66 | 116 | 8.0 | 17.0 | 0.00 | 1.44 | 0.00 | 76 | 1017.7 |
| 20260906074026 | 65 | 138 | 11.0 | 17.0 | 0.00 | 1.44 | 0.00 | 76 | 1017.6 |
| 20260906073525 | 65 | 113 | 12.0 | 16.0 | 0.00 | 1.44 | 0.00 | 77 | 1017.5 |
| 20260906073049 | 65 | 111 | 10.0 | 15.0 | 0.00 | 1.44 | 0.00 | 77 | 1017.6 |
| 20260906072526 | 65 | 119 | 11.0 | 15.0 | 0.00 | 1.44 | 0.00 | 78 | 1017.8 |
| 20260906072024 | 65 | 113 | 10.0 | 16.0 | 0.00 | 1.44 | 0.00 | 79 | 1017.9 |
| 20260906071551 | 65 | 125 | 10.0 | 16.0 | 0.00 | 1.44 | 0.00 | 79 | 1018.2 |
| 20260906071023 | 64 | 126 | 9.0 | 15.0 | 0.00 | 1.44 | 0.00 | 80 | 1018.7 |
| 20260906070523 | 65 | 112 | 9.0 | 15.0 | 0.00 | 1.44 | 0.00 | 79 | 1018.9 |
| 20260906070057 | 65 | 141 | 10.0 | 17.0 | 0.00 | 1.44 | 0.00 | 79 | 1018.6 |
| 20260906065525 | 65 | 167 | 10.0 | 17.0 | 0.00 | 1.44 | 0.00 | 78 | 1018.3 |
| 20260906065026 | 65 | 138 | 11.0 | 15.0 | 0.00 | 1.44 | 0.00 | 79 | 1018.2 |
| 20260906064550 | 65 | 172 | 10.0 | 14.0 | 0.00 | 1.44 | 0.00 | 79 | 1018.4 |
| 20260906064033 | 65 | 150 | 8.0 | 13.0 | 0.00 | 1.44 | 0.00 | 79 | 1018.5 |
| 20260906063526 | 65 | 138 | 9.0 | 15.0 | 0.00 | 1.44 | 0.00 | 79 | 1018.4 |
| 20260906063046 | 65 | 127 | 9.0 | 15.0 | 0.00 | 1.44 | 0.00 | 79 | 1018.2 |
| 20260906062524 | 64 | 113 | 9.0 | 16.0 | 0.00 | 1.44 | 0.00 | 80 | 1018.1 |
| 20260906062029 | 65 | 107 | 10.0 | 19.0 | 0.00 | 1.44 | 0.00 | 79 | 1018.0 |
| 20260906061545 | 64 | 128 | 12.0 | 19.0 | 0.00 | 1.44 | 0.00 | 79 | 1018.0 |
| 20260906061024 | 64 | 116 | 14.0 | 19.0 | 0.01 | 1.44 | 0.00 | 80 | 1018.2 |
| 20260906060524 | 64 | 121 | 13.0 | 24.0 | 0.01 | 1.44 | 0.00 | 80 | 1018.5 |
| 20260906060054 | 65 | 123 | 13.0 | 29.0 | 0.02 | 1.44 | 0.00 | 79 | 1018.9 |
| 20260906055522 | 65 | 145 | 18.0 | 29.0 | 0.03 | 1.44 | 1.44 | 79 | 1018.9 |
| 20260906055026 | 65 | 115 | 15.0 | 26.0 | 0.03 | 1.44 | 1.44 | 79 | 1018.7 |
| 20260906054559 | 65 | 126 | 18.0 | 26.0 | 0.03 | 1.44 | 1.44 | 79 | 1019.1 |
| 20260906054024 | 64 | 107 | 18.0 | 26.0 | 0.04 | 1.44 | 1.44 | 80 | 1018.8 |
| 20260906053525 | 64 | 121 | 17.0 | 26.0 | 0.04 | 1.44 | 1.44 | 81 | 1018.8 |
| 20260906053040 | 64 | 106 | 19.0 | 26.0 | 0.04 | 1.44 | 1.44 | 81 | 1019.0 |
| 20260906052524 | 64 | 123 | 16.0 | 26.0 | 0.05 | 1.44 | 1.44 | 80 | 1018.7 |
| 20260906052023 | 64 | 109 | 17.0 | 31.0 | 0.10 | 1.44 | 1.44 | 81 | 1018.3 |
| 20260906051605 | 64 | 82 | 23.0 | 31.0 | 0.34 | 1.44 | 1.44 | 81 | 1017.6 |
| 20260906051026 | 64 | 107 | 23.0 | 31.0 | 0.72 | 1.43 | 1.43 | 79 | 1017.9 |
| 20260906050525 | 65 | 94 | 20.0 | 29.0 | 0.92 | 1.43 | 1.43 | 79 | 1018.7 |
| 20260906050047 | 64 | 96 | 18.0 | 32.0 | 0.93 | 1.42 | 1.42 | 81 | 1018.9 |
| 20260906045525 | 65 | 119 | 19.0 | 32.0 | 0.97 | 1.41 | 1.41 | 82 | 1019.2 |
| 20260906045025 | 66 | 129 | 17.0 | 22.0 | 1.03 | 1.41 | 1.41 | 82 | 1019.9 |
| 20260906044552 | 67 | 129 | 14.0 | 28.0 | 1.08 | 1.40 | 1.40 | 80 | 1019.5 |
| 20260906044027 | 68 | 116 | 15.0 | 33.0 | 1.11 | 1.40 | 1.40 | 78 | 1019.1 |
| 20260906043523 | 69 | 80 | 23.0 | 33.0 | 1.12 | 1.40 | 1.40 | 71 | 1018.3 |
| 20260906043049 | 66 | 67 | 17.0 | 27.0 | 1.14 | 1.40 | 1.40 | 75 | 1017.8 |
| 20260906042526 | 65 | 87 | 13.0 | 30.0 | 1.16 | 1.39 | 1.39 | 80 | 1018.4 |
| 20260906042026 | 65 | 62 | 19.0 | 30.0 | 1.11 | 1.31 | 1.31 | 80 | 1019.3 |
| 20260906041545 | 65 | 88 | 15.0 | 25.0 | 0.92 | 1.04 | 1.04 | 78 | 1019.8 |
| 20260906041337 | 66 | 111 | 14.0 | 20.0 | 0.63 | 0.66 | 0.66 | 83 | 1021.1 |
| 20260906040526 | 66 | 348 | 12.0 | 23.0 | 0.51 | 0.51 | 0.51 | 85 | 1020.0 |
| 20260906040123 | 66 | 291 | 14.0 | 26.0 | 0.48 | 0.48 | 0.48 | 85 | 1019.6 |
| 20260906035525 | 66 | 344 | 20.0 | 27.0 | 0.44 | 0.44 | 0.44 | 84 | 1019.0 |
| 20260906035026 | 65 | 331 | 21.0 | 27.0 | 0.37 | 0.37 | 0.37 | 84 | 1018.9 |
| 20260906034604 | 65 | 329 | 21.0 | 31.0 | 0.31 | 0.31 | 0.31 | 83 | 1019.5 |
| 20260906034023 | 65 | 319 | 24.0 | 31.0 | 0.29 | 0.29 | 0.29 | 83 | 1019.3 |
| 20260906033526 | 66 | 310 | 22.0 | 33.0 | 0.28 | 0.28 | 0.28 | 83 | 1019.2 |
| 20260906033104 | 67 | 292 | 20.0 | 33.0 | 0.25 | 0.25 | 0.25 | 83 | 1019.4 |
| 20260906032530 | 67 | 328 | 21.0 | 40.0 | 0.22 | 0.22 | 0.22 | 83 | 1018.7 |
| 20260906032026 | 67 | 333 | 30.0 | 40.0 | 0.20 | 0.20 | 0.20 | 82 | 1018.1 |
| 20260906031544 | 68 | 286 | 23.0 | 32.0 | 0.11 | 0.11 | 0.11 | 82 | 1018.2 |
| 20260906031024 | 69 | 304 | 17.0 | 26.0 | 0.03 | 0.03 | 0.03 | 81 | 1018.4 |
| 20260906030525 | 70 | 294 | 3.0 | 17.0 | 0.00 | 0.00 | 0.00 | 81 | 1018.7 |
| 20260906030045 | 70 | 317 | 8.0 | 18.0 | 0.00 | 0.00 | 0.00 | 81 | 1018.4 |
| 20260906025524 | 70 | 350 | 13.0 | 20.0 | 0.00 | 0.00 | 0.00 | 79 | 1017.9 |
| 20260906025024 | 71 | 327 | 13.0 | 20.0 | 0.00 | 0.00 | 0.00 | 78 | 1017.6 |
| 20260906024603 | 71 | 336 | 16.0 | 22.0 | 0.00 | 0.00 | 0.00 | 78 | 1017.5 |
| 20260906024027 | 71 | 22 | 16.0 | 22.0 | 0.00 | 0.00 | 0.00 | 79 | 1017.6 |
| 20260906023526 | 71 | 317 | 10.0 | 15.0 | 0.00 | 0.00 | 0.00 | 78 | 1018.1 |
| 20260906023052 | 71 | 22 | 6.0 | 12.0 | 0.00 | 0.00 | 0.00 | 78 | 1017.6 |
| 20260906022526 | 70 | 42 | 8.0 | 12.0 | 0.00 | 0.00 | 0.00 | 78 | 1017.0 |
| 20260906022025 | 70 | 68 | 7.0 | 11.0 | 0.00 | 0.00 | 0.00 | 79 | 1017.1 |
| 20260906021546 | 70 | 46 | 6.0 | 11.0 | 0.00 | 0.00 | 0.00 | 79 | 1017.3 |
| 20260906021024 | 70 | 56 | 7.0 | 14.0 | 0.00 | 0.00 | 0.00 | 79 | 1017.3 |
| 20260906020524 | 70 | 13 | 9.0 | 14.0 | 0.00 | 0.00 | 0.00 | 78 | 1017.3 |
| 20260906020053 | 70 | 355 | 8.0 | 12.0 | 0.00 | 0.00 | 0.00 | 77 | 1017.3 |
| 20260906015526 | 70 | 331 | 8.0 | 21.0 | 0.00 | 0.00 | 0.00 | 76 | 1017.1 |
| 20260906015026 | 70 | 346 | 9.0 | 22.0 | 0.00 | 0.00 | 0.00 | 76 | 1017.0 |
| 20260906014546 | 71 | 339 | 15.0 | 23.0 | 0.00 | 0.00 | 0.00 | 74 | 1016.7 |
| 20260906014025 | 72 | 335 | 17.0 | 23.0 | 0.00 | 0.00 | 0.00 | 71 | 1016.9 |
| 20260906013526 | 74 | 320 | 12.0 | 18.0 | 0.00 | 0.00 | 0.00 | 66 | 1017.0 |
| 20260906013044 | 74 | 286 | 4.0 | 26.0 | 0.00 | 0.00 | 0.00 | 65 | 1017.2 |
| 20260906012527 | 73 | 360 | 15.0 | 29.0 | 0.00 | 0.00 | 0.00 | 68 | 1017.2 |
| 20260906012025 | 73 | 340 | 19.0 | 29.0 | 0.00 | 0.00 | 0.00 | 68 | 1017.1 |
| 20260906011545 | 75 | 307 | 19.0 | 24.0 | 0.00 | 0.00 | 0.00 | 66 | 1017.5 |
| 20260906011026 | 78 | 360 | 9.0 | 16.0 | 0.00 | 0.00 | 0.00 | 58 | 1017.5 |
| 20260906010523 | 78 | 221 | 5.0 | 22.0 | 0.00 | 0.00 | 0.00 | 58 | 1016.9 |
| 20260906010052 | 78 | 194 | 10.0 | 24.0 | 0.00 | 0.00 | 0.00 | 58 | 1016.2 |
| 20260906005524 | 79 | 179 | 13.0 | 24.0 | 0.00 | 0.00 | 0.00 | 58 | 1015.5 |
| 20260906005024 | 79 | 157 | 15.0 | 26.0 | 0.00 | 0.00 | 0.00 | 58 | 1015.2 |
| 20260906004546 | 80 | 161 | 17.0 | 31.0 | 0.00 | 0.00 | 0.00 | 57 | 1014.7 |
| 20260906004027 | 80 | 137 | 16.0 | 30.0 | 0.00 | 0.00 | 0.00 | 56 | 1014.9 |
| 20260906003524 | 81 | 146 | 19.0 | 35.0 | 0.00 | 0.00 | 0.00 | 55 | 1014.9 |
| 20260906003048 | 80 | 139 | 23.0 | 35.0 | 0.00 | 0.00 | 0.00 | 56 | 1015.0 |
| 20260906002525 | 80 | 170 | 19.0 | 36.0 | 0.00 | 0.00 | 0.00 | 56 | 1014.9 |
| 20260906002025 | 80 | 169 | 21.0 | 36.0 | 0.00 | 0.00 | 0.00 | 56 | 1014.8 |
| 20260906001547 | 84 | 174 | 24.0 | 33.0 | 0.00 | 0.00 | 0.00 | 53 | 1015.2 |
| 20260906001024 | 89 | 132 | 18.0 | 28.0 | 0.00 | 0.00 | 0.00 | 45 | 1014.7 |
| 20260906000523 | 89 | 121 | 20.0 | 28.0 | 0.00 | 0.00 | 0.00 | 45 | 1014.6 |
| 20260906000053 | 89 | 132 | 19.0 | 28.0 | 0.00 | 0.00 | 0.00 | 45 | 1014.7 |
| 20260905235523 | 89 | 128 | 21.0 | 28.0 | 0.00 | 0.00 | 0.00 | 45 | 1014.5 |
| 20260905235026 | 89 | 106 | 17.0 | 26.0 | 0.00 | 0.00 | 0.00 | 45 | 1013.9 |
| 20260905234547 | 89 | 115 | 19.0 | 26.0 | 0.00 | 0.00 | 0.00 | 45 | 1013.8 |
| 20260905234024 | 89 | 117 | 17.0 | 26.0 | 0.00 | 0.00 | 0.00 | 45 | 1013.9 |
| 20260905233526 | 89 | 117 | 16.0 | 25.0 | 0.00 | 0.00 | 0.00 | 46 | 1013.9 |
| 20260905233055 | 89 | 130 | 17.0 | 27.0 | 0.00 | 0.00 | 0.00 | 46 | 1013.9 |
| 20260905232525 | 89 | 119 | 18.0 | 27.0 | 0.00 | 0.00 | 0.00 | 46 | 1013.9 |
| 20260905232024 | 89 | 124 | 16.0 | 24.0 | 0.00 | 0.00 | 0.00 | 47 | 1013.9 |
| 20260905231546 | 90 | 111 | 18.0 | 25.0 | 0.00 | 0.00 | 0.00 | 47 | 1014.2 |
| 20260905231026 | 90 | 122 | 14.0 | 25.0 | 0.00 | 0.00 | 0.00 | 47 | 1014.2 |
| 20260905230523 | 90 | 118 | 17.0 | 25.0 | 0.00 | 0.00 | 0.00 | 47 | 1014.1 |
| 20260905225524 | 90 | 127 | 16.0 | 31.0 | 0.00 | 0.00 | 0.00 | 46 | 1014.0 |
| 20260905225024 | 90 | 96 | 21.0 | 32.0 | 0.00 | 0.00 | 0.00 | 46 | 1014.0 |
| 20260905224610 | 91 | 129 | 17.0 | 32.0 | 0.00 | 0.00 | 0.00 | 45 | 1013.9 |
| 20260905224024 | 93 | 130 | 18.0 | 29.0 | 0.00 | 0.00 | 0.00 | 44 | 1013.8 |
| 20260905223525 | 94 | 139 | 17.0 | 26.0 | 0.00 | 0.00 | 0.00 | 42 | 1013.9 |
| 20260905223047 | 93 | 127 | 19.0 | 26.0 | 0.00 | 0.00 | 0.00 | 43 | 1014.0 |
| 20260905222528 | 91 | 126 | 16.0 | 23.0 | 0.00 | 0.00 | 0.00 | 44 | 1013.9 |
| 20260905222024 | 91 | 131 | 16.0 | 23.0 | 0.00 | 0.00 | 0.00 | 43 | 1013.9 |
| 20260905221543 | 91 | 139 | 17.0 | 25.0 | 0.00 | 0.00 | 0.00 | 43 | 1013.8 |
| 20260905221024 | 91 | 123 | 16.0 | 27.0 | 0.00 | 0.00 | 0.00 | 43 | 1014.1 |
| 20260905220523 | 91 | 138 | 16.0 | 27.0 | 0.00 | 0.00 | 0.00 | 43 | 1014.2 |
| 20260905220048 | 91 | 117 | 18.0 | 27.0 | 0.00 | 0.00 | 0.00 | 43 | 1014.2 |
| 20260905215527 | 92 | 123 | 16.0 | 26.0 | 0.00 | 0.00 | 0.00 | 42 | 1014.2 |
| 20260905215025 | 92 | 150 | 14.0 | 25.0 | 0.00 | 0.00 | 0.00 | 42 | 1014.2 |
| 20260905214551 | 92 | 118 | 16.0 | 28.0 | 0.00 | 0.00 | 0.00 | 42 | 1014.3 |
| 20260905214026 | 92 | 140 | 16.0 | 28.0 | 0.00 | 0.00 | 0.00 | 41 | 1014.3 |
| 20260905213526 | 92 | 127 | 17.0 | 27.0 | 0.00 | 0.00 | 0.00 | 41 | 1014.5 |
| 20260905213101 | 93 | 118 | 16.0 | 26.0 | 0.00 | 0.00 | 0.00 | 41 | 1014.7 |
| 20260905212533 | 95 | 138 | 14.0 | 29.0 | 0.00 | 0.00 | 0.00 | 40 | 1014.7 |
| 20260905212026 | 96 | 162 | 17.0 | 28.0 | 0.00 | 0.00 | 0.00 | 39 | 1014.9 |
| 20260905211549 | 96 | 119 | 15.0 | 28.0 | 0.00 | 0.00 | 0.00 | 39 | 1014.8 |
| 20260905211023 | 95 | 136 | 19.0 | 26.0 | 0.00 | 0.00 | 0.00 | 39 | 1014.9 |
| 20260905210524 | 94 | 121 | 17.0 | 23.0 | 0.00 | 0.00 | 0.00 | 39 | 1015.1 |
| 20260905210051 | 93 | 142 | 16.0 | 26.0 | 0.00 | 0.00 | 0.00 | 41 | 1015.1 |
| 20260905205525 | 94 | 119 | 14.0 | 26.0 | 0.00 | 0.00 | 0.00 | 40 | 1015.1 |
| 20260905205025 | 95 | 125 | 18.0 | 26.0 | 0.00 | 0.00 | 0.00 | 40 | 1015.2 |
| 20260905204552 | 96 | 173 | 14.0 | 23.0 | 0.00 | 0.00 | 0.00 | 38 | 1015.2 |
| 20260905204027 | 97 | 137 | 13.0 | 23.0 | 0.00 | 0.00 | 0.00 | 37 | 1015.3 |